Helicity
-34 6 41 43 64 88 83 85 75 78 77 81 72 68 63 59 57 58 49 38 32 31 33 38 44 45 49 51 53 49 41 32 33 33 40 48 45 40 42 35 32 26 40
84 -12 4 80 86 102 94 91 84 77 79 85 65 60 48 54 60 62 52 46 42 44 45 47 49 54 62 67 71 67 57 55 45 37 41 44 50 47 40 33 31 30 43
93 63 -12 63 109 114 121 111 94 78 66 69 67 60 47 44 61 63 62 56 45 44 45 52 62 69 63 71 66 56 41 34 31 40 42 23 31 38 39 38 34 33 37
95 71 62 38 112 128 126 118 104 80 66 54 59 48 44 49 62 55 65 60 56 53 56 55 56 59 54 61 64 53 41 39 37 30 27 25 31 41 35 37 33 37 31
78 89 94 60 104 127 124 108 87 75 73 52 49 42 38 45 51 47 50 58 60 63 67 63 60 54 58 60 64 55 46 43 40 40 44 36 29 53 39 37 32 35 33
64 84 76 67 100 116 97 109 99 79 64 50 40 38 43 44 40 47 47 53 59 60 67 68 66 59 57 68 75 71 65 52 36 33 47 53 60 65 60 56 46 35 34
74 68 66 64 88 95 118 113 91 79 61 56 50 46 42 49 48 49 46 56 66 61 56 56 67 65 58 51 62 67 66 63 58 49 55 62 56 78 81 76 58 34 43
116 90 78 67 87 108 116 92 96 84 69 62 58 56 53 55 65 57 52 56 55 53 57 59 60 57 65 60 49 52 57 50 49 49 38 62 69 80 84 80 57 41 40
90 119 99 100 114 84 88 96 97 82 71 68 59 56 72 71 68 65 56 50 48 53 61 57 59 55 63 52 41 42 46 42 37 31 29 57 69 87 109 116 90 61 34
70 17 48 69 119 106 101 112 108 91 82 70 65 68 64 68 67 48 57 49 49 55 58 50 57 70 55 41 37 36 38 34 23 26 38 51 61 80 98 120 104 65 47
8 5 13 85 116 120 122 118 118 102 93 75 76 75 84 83 59 49 31 29 41 49 48 51 60 54 53 42 34 36 39 30 27 28 33 39 53 67 91 109 112 84 60
96 55 69 98 123 130 145 157 145 127 114 92 85 92 94 80 58 46 42 40 41 43 48 56 60 53 45 50 53 49 43 39 44 36 35 42 46 64 76 102 121 97 69
97 94 86 110 110 124 162 177 169 165 136 96 83 98 102 90 68 54 46 43 42 41 57 63 59 65 61 66 72 66 54 53 54 49 41 24 42 58 79 85 94 97 76
156 128 119 106 92 113 177 198 202 209 183 139 112 116 127 119 93 69 53 51 53 57 61 69 75 74 75 60 68 64 55 75 68 63 49 34 50 62 72 82 95 92 69
157 125 122 165 132 148 169 182 210 224 215 184 161 150 154 141 122 99 71 62 64 84 68 63 71 78 72 61 65 67 71 81 67 78 64 55 51 59 66 66 87 86 77
149 171 116 109 134 193 192 187 205 240 224 216 187 181 180 162 149 131 102 76 55 91 81 72 75 74 71 75 73 90 104 103 95 94 80 69 70 84 89 83 77 101 82
178 156 154 134 101 116 129 194 213 234 230 219 205 202 205 193 172 158 126 109 84 88 85 86 82 96 93 91 95 111 126 111 112 99 88 79 78 87 79 83 81 87 85
207 205 179 143 123 106 138 172 195 236 230 210 214 213 207 211 198 177 169 139 129 119 116 122 119 112 108 116 134 129 134 133 126 114 95 89 80 74 66 64 77 61 44
276 248 234 235 185 183 177 194 208 234 222 199 202 204 205 219 224 204 183 156 156 155 160 159 154 153 155 161 176 161 160 151 138 131 102 93 87 65 80 69 71 64 59
331 302 272 252 249 226 243 210 188 210 203 188 180 177 190 200 227 230 203 186 187 181 185 220 196 189 206 209 213 203 177 165 162 144 103 109 89 84 84 89 102 93 82
319 366 406 349 277 345 301 306 240 216 193 159 159 155 184 188 209 235 224 208 228 220 222 231 242 232 238 293 292 256 241 211 166 158 116 103 108 106 87 95 98 108 108
270 329 439 410 326 360 358 375 311 260 210 194 180 172 190 209 231 246 253 247 257 258 268 285 312 287 266 381 373 385 313 375 300 230 161 154 79 87 84 123 117 105 129
198 273 417 491 421 355 333 370 404 352 291 270 251 229 218 221 234 254 269 271 296 311 290 314 319 317 319 381 406 355 488 367 535 316 196 114 162 100 123 131 125 115 140
152 242 285 294 324 325 359 398 420 424 395 347 304 272 243 235 239 258 267 270 295 316 264 283 301 310 333 383 528 605 701 541 988 384 197 160 234 115 139 132 144 122 151
65 128 185 249 304 382 424 405 409 386 362 380 381 347 302 271 228 262 263 258 267 309 266 270 347 348 494 529 627 430 586 652 513 409 189 178 229 143 177 199 151 160 208
101 175 245 325 364 399 371 395 423 366 393 406 393 348 312 274 278 281 273 262 274 289 318 340 277 362 482 485 544 494 492 472 373 203 320 166 253 220 200 168 156 181 86
Wind_Speed
23 33 32 32 28 29 30 34 39 44 48 46 47 48 49 48 47 47 47 47 48 49 49 49 50 52 53 53 53 54 55 55 55 55 55 56 56 57 57 57 57 56 56
29 38 34 30 25 28 28 32 37 40 42 43 43 43 45 46 45 44 43 42 44 45 46 47 48 48 49 48 49 50 51 53 52 52 53 54 55 55 56 55 54 54 54
33 35 33 27 24 26 25 28 32 36 40 41 41 41 42 42 41 40 39 40 41 42 42 44 44 45 45 45 45 46 47 47 48 49 51 51 52 52 53 53 52 52 51
31 33 31 28 27 25 22 24 32 35 39 40 40 40 40 39 38 38 37 37 37 37 38 40 40 41 41 40 42 42 42 44 46 42 45 46 47 49 49 49 49 50 49
28 27 30 32 29 24 21 27 34 35 36 37 37 37 36 35 34 33 33 33 34 34 35 37 36 37 36 37 38 38 39 40 41 40 38 40 41 43 45 47 47 47 46
28 24 31 36 27 25 29 28 30 32 34 33 34 33 31 30 30 30 30 30 31 33 33 32 32 33 33 33 33 33 35 36 38 37 34 35 37 38 41 42 42 43 43
30 21 30 34 30 28 20 24 27 29 30 28 27 28 28 25 25 26 26 27 28 29 28 28 28 28 28 28 30 30 31 33 33 35 32 32 34 35 38 38 38 40 40
33 25 27 39 29 23 21 26 24 24 25 24 23 24 23 22 22 23 23 24 24 24 24 25 25 25 25 25 26 27 28 29 29 29 30 28 31 33 34 35 36 36 36
11 17 20 45 15 27 26 22 20 23 23 20 20 21 19 19 19 20 21 20 21 21 21 22 22 23 25 24 24 26 27 28 27 27 32 29 28 30 31 32 31 32 33
18 53 51 51 9 19 18 17 18 19 17 16 16 17 16 15 15 17 17 18 18 18 18 19 19 21 22 23 25 26 27 29 29 27 28 27 27 26 28 30 31 33 31
51 57 57 20 14 14 12 13 14 17 16 15 12 12 11 10 12 14 15 15 15 15 15 16 17 17 19 21 23 25 27 29 30 29 29 30 26 22 27 29 31 29 28
45 47 31 12 16 16 13 11 13 13 12 13 10 8 6 6 8 11 12 11 11 11 13 14 15 15 17 20 23 25 26 29 31 30 29 33 26 24 25 29 29 28 29
28 12 16 14 14 16 13 10 10 11 10 13 12 7 3 2 4 6 6 6 7 7 12 15 15 15 16 18 21 25 25 27 31 34 31 32 34 31 27 29 28 30 29
16 15 10 9 10 14 11 13 12 12 10 10 13 10 6 4 5 6 5 4 2 4 7 12 13 14 16 17 20 22 25 30 33 37 35 37 36 32 31 32 29 29 29
16 13 13 10 13 12 13 10 10 11 11 11 10 11 9 8 8 7 6 5 4 4 4 7 10 12 13 17 20 22 27 31 30 35 35 37 37 34 33 36 40 35 32
19 15 13 12 13 13 17 14 12 13 13 13 13 12 13 12 11 10 9 9 7 6 5 6 7 11 15 19 19 22 24 28 30 34 35 38 42 38 39 43 43 42 40
23 16 20 16 13 13 14 13 15 17 16 15 14 14 16 15 14 13 13 12 12 10 9 9 14 17 19 22 23 20 24 25 30 32 36 40 43 46 45 45 41 42 44
23 27 20 17 17 16 14 14 16 15 15 16 15 15 17 17 17 16 17 17 17 16 15 16 17 19 21 23 22 20 23 27 29 31 33 36 37 39 38 41 42 43 44
30 23 24 23 24 20 18 17 18 16 17 19 17 16 17 19 19 20 22 24 23 20 20 21 21 23 26 27 27 24 25 25 27 33 36 37 37 33 37 41 45 45 42
26 27 27 26 26 22 20 19 24 24 22 19 19 19 19 21 22 23 27 27 26 26 25 27 26 29 31 30 31 30 30 33 40 43 42 40 38 35 33 37 41 42 43
26 29 31 31 30 26 24 23 21 24 18 20 20 21 21 22 24 26 28 30 30 30 31 31 33 34 34 36 39 39 44 44 36 44 33 36 40 37 32 38 41 43 45
30 29 25 32 32 33 29 26 24 24 27 25 27 23 22 23 25 27 29 32 34 35 35 37 37 40 42 37 43 50 53 52 50 47 46 38 52 37 36 41 47 47 48
29 27 26 26 30 31 27 27 31 35 37 30 27 26 24 25 27 29 32 35 35 35 39 40 41 43 44 42 39 39 49 45 55 52 42 37 41 25 32 41 51 51 50
37 25 25 19 20 24 27 30 31 32 35 36 37 35 32 31 32 34 35 36 38 40 41 43 43 43 43 46 41 37 39 27 28 45 43 33 45 39 37 44 54 57 58
16 12 19 23 24 29 30 33 38 42 50 54 49 47 42 39 37 38 38 40 41 42 41 41 41 42 43 45 51 30 37 31 31 39 56 37 39 41 46 50 53 61 62
36 31 27 26 32 32 35 38 40 45 53 56 56 53 51 47 43 39 40 41 44 47 45 42 40 40 40 40 40 25 28 40 33 28 39 59 49 51 53 51 52 55 48
Wind_Direction
121 127 124 116 100 89 81 78 81 86 92 88 89 90 91 88 84 82 81 80 79 81 75 73 74 76 75 71 66 66 63 58 55 52 52 52 49 47 50 49 46 44 38
118 128 126 118 106 96 85 83 84 88 89 88 87 86 91 91 88 84 78 75 78 81 79 77 75 73 75 70 68 68 61 57 49 46 46 47 47 48 46 44 45 45 42
123 128 126 120 112 102 91 85 84 87 93 94 93 91 92 92 87 85 79 79 81 79 72 76 79 80 77 68 62 61 61 58 57 59 53 47 43 43 42 44 42 39 39
126 128 127 125 117 108 97 90 93 95 100 102 100 102 102 99 93 93 86 80 74 68 67 73 74 78 77 59 55 53 52 49 50 59 54 53 50 44 43 41 40 39 39
124 126 129 130 123 115 106 104 107 106 105 108 106 107 105 98 93 90 83 73 71 68 66 73 68 70 59 62 64 62 59 56 55 58 62 57 54 48 44 39 36 34 39
122 122 132 134 128 123 121 114 111 109 110 110 111 109 104 95 89 85 77 71 70 74 70 63 65 67 73 77 73 70 59 53 53 58 70 65 57 51 45 42 41 39 35
122 121 131 136 133 131 123 118 116 115 116 111 107 107 104 92 86 82 75 67 63 70 66 64 59 61 64 67 62 58 55 53 59 61 68 62 57 52 43 42 40 37 34
124 124 132 142 138 136 131 129 123 119 119 115 110 109 101 95 88 86 74 67 69 69 56 55 51 49 47 53 53 53 50 50 57 61 56 60 56 47 45 38 34 34 33
102 123 133 227 146 142 140 136 131 130 127 121 119 116 105 102 98 89 86 76 70 61 51 52 43 44 38 42 42 41 43 44 44 47 39 52 52 43 40 35 37 34 30
113 220 226 229 163 144 144 142 140 137 133 130 125 121 113 101 93 98 88 84 74 65 51 57 49 38 39 36 30 31 33 31 32 37 37 40 38 38 35 31 33 29 27
202 216 222 242 151 153 154 152 149 148 147 145 136 129 114 94 102 102 97 95 88 73 61 54 51 55 45 33 24 25 23 27 26 26 31 29 29 33 26 24 22 22 21
154 160 146 147 152 156 162 165 161 159 158 157 152 141 119 104 108 112 113 97 84 76 44 36 38 43 36 27 19 16 16 17 19 23 22 17 23 21 19 16 17 16 13
140 127 144 150 154 160 166 174 175 172 177 170 168 163 152 112 111 119 111 99 78 66 22 12 14 18 20 21 14 8 9 8 3 6 12 11 9 11 12 12 9 7 6
136 147 157 174 177 173 178 182 186 190 203 199 183 183 189 208 178 170 167 145 105 38 17 1 360 4 4 6 7 6 3 357 353 352 3 3 4 6 6 3 3 3 360
156 166 171 181 188 192 194 226 229 220 230 238 221 207 219 230 229 212 219 210 217 336 346 360 357 356 357 350 351 351 349 348 351 348 356 359 2 2 360 357 355 354 353
181 185 183 194 191 200 201 216 241 257 255 253 248 235 221 229 240 247 243 235 246 271 299 326 342 341 339 341 339 340 343 343 345 346 350 351 351 360 358 352 350 350 349
199 195 192 195 202 206 211 242 263 270 264 256 248 241 225 229 237 244 250 248 245 255 266 293 321 326 323 324 326 328 332 338 338 339 340 342 342 347 351 351 351 347 344
211 202 203 207 208 215 231 259 270 267 256 258 247 240 231 234 243 254 260 263 276 277 281 288 299 307 308 312 312 313 319 324 327 331 336 339 341 346 351 352 351 349 347
218 224 217 214 210 224 258 259 265 268 256 267 262 250 243 238 253 254 272 281 284 279 280 286 290 297 301 302 300 299 305 312 317 327 329 334 337 350 352 354 351 350 351
234 237 246 236 224 234 258 261 276 275 275 269 263 260 261 258 260 264 279 280 283 284 285 291 285 291 295 291 294 292 298 309 311 316 322 330 337 347 354 354 352 349 346
251 240 237 237 233 238 234 238 237 223 265 280 277 276 269 264 267 266 275 283 283 280 283 284 289 287 285 294 298 300 303 300 297 299 312 321 327 341 352 352 350 347 344
226 233 249 228 234 223 227 231 261 265 276 281 290 284 273 266 273 273 275 283 286 286 286 284 285 291 291 289 297 306 304 304 301 303 305 319 323 342 343 348 347 344 341
215 222 220 216 213 218 229 262 277 287 288 284 278 281 274 272 275 274 279 283 285 283 285 281 278 277 287 292 285 297 309 319 298 290 304 319 331 339 339 341 340 340 337
200 216 216 238 238 243 249 259 250 256 269 277 285 290 290 287 282 281 281 280 279 285 287 287 287 283 285 288 297 304 289 323 303 294 312 311 325 329 333 332 334 334 333
294 254 268 272 272 272 265 265 272 274 282 288 289 293 293 293 286 285 281 285 286 287 288 290 293 289 292 289 289 302 296 304 309 298 303 305 324 323 326 327 328 333 330
308 302 294 286 284 281 278 275 273 277 282 284 288 290 293 295 295 289 290 287 289 291 287 288 289 295 295 289 279 308 285 311 298 296 308 304 317 322 323 324 325 331 334